Wind_Speed
28 30 29 31 32 34 34 35 36 32 32 37 41 40 42 48 48 51 54 53 53 55 57 56 56 56 56 55 61 59 59 59 60 64 62 63 62 62 59 58 57 55 53 51
30 34 29 30 32 33 34 37 38 38 38 43 43 41 41 47 52 53 56 57 56 53 54 55 56 58 58 59 62 64 64 62 63 64 66 66 65 65 64 62 61 57 57 55
28 29 31 30 31 31 31 37 41 45 45 43 45 39 42 47 50 51 52 56 60 60 58 57 56 55 55 57 58 60 64 67 67 68 69 69 70 68 67 66 62 59 59 59
30 24 26 30 33 34 34 38 42 43 46 46 43 51 47 42 38 33 32 36 37 39 45 51 55 54 54 50 47 48 53 57 67 71 72 73 72 72 71 68 67 61 61 61
31 24 25 29 32 34 37 41 43 44 45 45 42 49 45 41 31 31 36 34 33 32 30 34 31 26 29 29 33 33 37 44 54 59 64 69 74 76 75 74 71 67 62 61
36 33 27 30 31 35 41 45 44 44 44 43 41 40 33 27 28 23 25 28 29 33 24 27 28 23 23 26 29 27 28 28 32 37 53 57 69 75 77 76 75 71 68 63
37 36 28 27 29 35 39 44 46 46 46 42 38 35 27 30 27 28 27 26 22 16 15 29 31 31 26 30 29 30 32 33 34 33 41 49 60 66 73 78 75 76 71 67
38 36 29 26 26 34 40 41 43 48 44 43 37 33 20 24 31 31 29 20 19 19 13 17 25 28 32 34 34 31 32 37 29 33 34 36 48 58 63 75 78 77 75 70
36 36 32 28 29 35 40 41 44 44 42 42 39 30 21 30 24 28 29 28 26 25 24 25 28 33 35 28 28 22 19 21 34 35 36 36 39 47 59 65 76 77 76 73
36 40 37 30 30 36 39 40 39 39 42 43 41 37 22 18 27 25 22 25 30 32 32 29 31 32 32 33 32 33 38 35 31 34 37 38 36 43 50 59 70 76 75 71
38 38 36 32 30 39 41 39 37 39 38 37 44 35 28 25 28 30 27 25 30 33 36 40 40 39 37 37 37 37 35 34 29 29 35 35 37 40 43 56 61 71 72 72
40 40 40 35 32 38 38 36 34 37 38 42 43 32 30 31 34 33 35 30 29 33 39 42 43 42 42 43 46 44 44 38 31 30 33 34 40 35 38 46 52 62 67 67
41 43 45 42 38 39 39 34 32 32 35 41 45 45 32 31 36 35 36 38 39 39 42 44 46 45 43 44 44 41 40 35 28 35 34 31 28 28 32 37 48 54 59 65
43 46 44 45 40 39 37 33 29 34 39 41 42 44 31 34 38 32 38 40 40 44 46 44 44 44 44 47 49 45 42 41 33 29 31 33 29 23 30 31 40 45 50 58
42 46 44 43 40 37 38 33 33 35 36 42 44 43 35 37 33 34 40 41 43 45 45 45 45 40 34 35 43 45 46 46 43 31 33 28 34 30 28 34 41 38 48 52
46 46 47 46 40 40 40 34 33 34 38 40 43 38 30 33 35 37 39 45 49 44 46 41 38 29 28 28 29 30 37 47 50 43 34 29 26 27 26 30 35 36 46 49
49 49 49 51 44 43 37 35 35 36 37 38 34 34 35 35 37 37 42 45 46 44 42 27 28 24 24 24 23 25 27 37 47 47 45 40 35 29 25 25 31 27 33 43
46 48 49 47 42 42 38 35 35 37 36 33 32 34 35 38 37 37 42 48 45 46 44 33 29 21 20 22 27 29 29 28 40 45 45 39 30 31 23 21 25 24 22 30
47 47 44 45 40 38 33 31 32 36 28 29 32 32 32 38 42 30 42 44 46 42 38 26 29 23 25 23 24 26 31 34 29 41 44 39 31 30 25 26 26 29 27 25
42 44 42 41 41 38 32 30 32 35 29 28 31 33 34 38 44 31 37 41 41 39 31 25 27 30 32 32 33 32 31 35 33 37 43 40 34 35 29 27 26 27 31 27
43 41 38 36 37 32 33 32 31 30 34 31 36 37 38 40 43 41 40 41 41 34 28 28 28 29 30 35 34 29 29 32 37 37 43 45 37 37 32 28 25 24 23 32
40 39 35 33 33 30 27 24 30 33 32 38 34 39 42 41 40 43 44 39 33 25 23 23 28 28 32 34 33 31 31 33 41 38 46 48 41 39 34 28 26 22 18 35
30 34 32 32 27 24 21 28 31 37 38 36 39 39 44 42 41 41 38 35 27 21 22 22 24 27 31 33 30 26 28 34 42 39 48 51 45 42 35 28 23 24 23 37
29 30 24 23 20 20 25 31 34 35 35 37 41 43 38 38 40 39 34 25 18 21 22 23 23 28 28 21 17 16 26 35 37 46 54 52 47 41 35 31 21 23 37 36
27 22 20 18 22 26 32 35 34 30 34 36 37 38 41 42 35 30 23 14 13 16 17 20 22 25 17 14 11 14 29 32 40 52 55 51 46 40 35 32 28 32 37 36
21 21 22 24 26 34 34 32 33 31 33 35 38 38 41 36 30 22 12 7 8 11 15 19 17 14 16 14 12 24 30 39 51 56 52 47 42 39 35 31 25 41 40 36
Wind_Direction
321 314 310 305 303 301 301 300 297 293 291 284 286 283 283 282 275 271 268 264 260 260 261 259 257 257 255 255 260 260 260 252 253 252 248 238 238 237 237 241 242 238 240 242
322 315 310 307 306 307 306 303 300 297 294 292 288 285 284 286 289 283 277 271 265 261 258 256 254 254 254 253 253 258 260 258 256 250 247 244 236 236 236 236 240 241 240 240
328 317 313 310 308 307 299 294 292 296 300 301 301 291 291 289 294 293 288 282 274 267 262 259 257 257 257 258 258 256 257 257 251 249 247 242 240 235 234 234 234 238 242 243
329 321 306 306 305 303 300 295 297 304 305 306 308 303 300 302 298 289 288 287 286 278 268 261 259 259 259 259 256 252 251 254 251 247 243 241 238 236 232 232 233 231 235 240
324 319 308 302 301 301 299 298 302 306 307 307 309 302 298 302 293 281 279 291 286 286 277 261 248 244 246 252 255 258 261 260 254 250 242 240 238 235 232 229 230 229 231 235
321 317 312 304 304 303 301 302 306 307 303 305 306 296 298 293 290 284 283 283 281 277 258 247 244 247 243 239 234 243 250 258 263 251 244 235 236 236 234 229 228 227 227 230
312 309 310 304 296 298 296 299 305 305 307 309 309 296 294 291 295 288 275 292 281 280 243 236 241 255 257 256 250 254 255 256 261 262 253 244 235 236 236 232 226 227 225 226
311 308 312 302 295 296 299 306 310 308 310 307 307 304 295 297 299 287 275 279 271 265 266 253 250 244 245 252 255 257 253 246 253 255 248 255 248 234 235 233 228 227 224 223
308 309 311 309 306 302 303 309 309 307 306 304 307 310 302 311 303 299 284 280 270 276 265 253 251 247 246 248 245 239 253 268 253 249 246 247 261 240 230 229 231 226 225 222
311 314 312 313 307 303 304 308 311 307 306 306 310 319 315 292 309 302 300 282 272 271 275 271 267 255 261 259 260 261 264 273 275 247 243 239 254 245 235 230 227 227 227 223
310 310 313 313 310 307 308 313 312 304 305 302 305 318 319 304 305 314 310 293 272 267 268 267 266 266 268 268 269 267 268 267 276 244 227 250 249 255 244 233 227 225 227 226
311 314 313 313 312 308 307 313 309 300 305 304 305 309 321 299 303 308 307 294 282 269 265 265 268 272 271 267 270 268 266 261 249 247 243 248 244 237 242 237 229 226 227 228
310 310 310 314 315 310 307 309 300 300 296 293 297 309 310 300 297 305 308 300 292 285 277 273 274 275 273 269 264 264 261 258 243 245 243 243 237 247 235 239 226 222 224 227
305 307 309 310 310 305 303 302 296 293 295 296 297 298 303 283 291 293 304 304 297 290 285 282 281 280 275 269 266 261 258 257 252 242 242 236 236 241 243 231 229 220 222 224
298 302 303 304 307 297 295 300 298 290 296 290 296 296 299 290 286 297 305 300 294 289 291 294 291 289 283 274 263 257 253 253 251 235 236 238 229 239 242 235 227 227 222 223
303 304 303 307 305 298 297 303 295 294 288 286 290 292 282 292 294 301 303 304 298 297 292 293 282 278 279 277 273 263 246 245 246 240 226 221 232 241 249 244 209 229 230 222
305 305 304 304 301 297 302 299 301 293 291 295 292 290 287 285 292 302 303 297 297 295 295 286 272 278 277 274 268 267 254 238 237 237 232 230 239 232 237 246 201 221 219 216
305 302 305 307 305 301 305 307 300 295 299 297 294 291 292 293 296 309 304 298 300 300 295 284 272 268 264 266 269 261 255 244 234 232 229 226 227 219 212 226 208 210 209 211
308 306 304 304 303 307 310 309 300 297 298 299 296 298 301 300 302 313 299 301 303 301 294 274 264 267 262 266 266 271 256 241 239 231 225 212 220 209 203 214 214 214 198 199
306 306 306 306 307 312 313 304 299 299 311 311 303 307 308 307 307 316 305 306 303 298 290 272 264 267 267 274 262 272 262 236 230 229 218 203 210 205 199 209 222 219 188 183
310 304 303 303 306 314 308 305 299 307 311 313 313 313 314 315 316 318 312 309 304 294 278 276 269 273 272 271 273 269 258 232 218 223 207 198 199 200 198 203 211 223 196 169
310 305 310 311 309 310 307 314 312 308 311 313 313 314 312 315 316 311 307 302 303 278 278 282 288 276 278 281 281 279 246 219 210 216 197 195 194 195 198 194 206 222 214 185
307 307 316 314 320 308 307 317 314 309 314 313 312 314 314 317 310 305 305 301 296 273 269 283 291 281 282 284 276 250 227 206 206 207 187 190 192 190 190 187 193 181 199 174
304 310 318 317 306 314 319 318 312 311 312 314 316 313 315 310 316 316 308 301 292 277 292 297 298 305 294 283 258 234 206 199 198 186 184 183 188 187 188 182 183 191 174 159
306 315 314 320 317 314 317 317 318 318 314 315 314 322 326 325 322 312 308 294 308 293 304 314 308 306 291 266 251 197 184 190 184 173 182 182 184 182 184 183 189 183 156 162
303 305 306 315 317 322 325 324 321 320 319 321 327 329 327 327 320 316 308 304 340 330 336 326 323 317 283 233 198 175 180 171 166 173 181 179 179 179 180 180 189 171 168 179
Height
5808 5802 5797 5791 5786 5782 5780 5777 5773 5772 5767 5764 5762 5762 5760 5748 5745 5742 5738 5740 5741 5740 5741 5745 5747 5747 5749 5753 5751 5755 5759 5764 5765 5769 5776 5782 5788 5794 5799 5803 5809 5816 5820 5825
5802 5793 5789 5784 5780 5776 5772 5767 5764 5761 5760 5755 5754 5754 5750 5737 5727 5725 5723 5722 5724 5728 5729 5729 5733 5734 5736 5739 5741 5740 5742 5748 5751 5753 5758 5764 5771 5778 5786 5791 5795 5803 5808 5814
5794 5787 5781 5777 5774 5771 5767 5761 5756 5752 5749 5745 5739 5740 5735 5725 5716 5710 5706 5703 5706 5708 5710 5713 5716 5720 5722 5723 5725 5727 5728 5728 5731 5738 5741 5748 5755 5763 5770 5777 5785 5792 5797 5803
5786 5782 5776 5771 5767 5763 5759 5753 5749 5745 5737 5732 5731 5717 5719 5713 5706 5700 5695 5693 5691 5690 5691 5692 5697 5702 5705 5706 5708 5708 5710 5710 5713 5717 5721 5729 5738 5745 5755 5762 5770 5778 5785 5791
5780 5775 5769 5764 5760 5756 5751 5744 5740 5736 5731 5725 5723 5713 5704 5704 5700 5695 5688 5687 5685 5683 5682 5683 5685 5689 5692 5696 5698 5699 5698 5697 5697 5699 5703 5710 5719 5727 5733 5745 5753 5763 5771 5778
5769 5765 5762 5757 5752 5747 5740 5734 5733 5728 5721 5718 5712 5703 5704 5696 5692 5687 5683 5682 5679 5676 5676 5678 5680 5681 5683 5685 5687 5690 5690 5689 5689 5688 5690 5692 5702 5710 5716 5726 5737 5746 5755 5764
5763 5758 5756 5753 5747 5740 5733 5728 5722 5718 5713 5708 5702 5695 5693 5688 5685 5681 5679 5677 5674 5669 5667 5670 5671 5673 5675 5676 5678 5679 5680 5679 5680 5680 5681 5683 5686 5693 5702 5709 5721 5729 5740 5750
5756 5751 5749 5745 5741 5734 5726 5721 5715 5704 5701 5697 5693 5688 5686 5683 5676 5673 5672 5670 5669 5665 5662 5662 5663 5664 5665 5668 5668 5669 5669 5670 5670 5670 5671 5673 5677 5680 5687 5693 5703 5712 5723 5735
5749 5744 5740 5736 5731 5725 5719 5714 5706 5697 5693 5685 5682 5681 5680 5674 5669 5667 5664 5663 5661 5658 5657 5657 5657 5658 5659 5660 5661 5661 5661 5661 5661 5662 5662 5663 5665 5668 5668 5677 5686 5697 5708 5721
5742 5735 5731 5729 5724 5716 5710 5706 5699 5691 5682 5675 5671 5670 5671 5668 5663 5661 5658 5655 5653 5652 5650 5649 5649 5651 5651 5650 5652 5653 5653 5652 5652 5650 5652 5653 5655 5657 5659 5662 5672 5684 5694 5707
5734 5729 5726 5721 5716 5707 5701 5694 5690 5683 5677 5670 5662 5663 5663 5659 5654 5652 5650 5647 5645 5644 5643 5641 5641 5641 5641 5641 5641 5641 5643 5644 5641 5637 5642 5645 5647 5649 5651 5655 5661 5671 5681 5693
5724 5719 5714 5713 5709 5701 5693 5687 5680 5673 5671 5663 5657 5652 5656 5649 5644 5643 5641 5637 5635 5633 5631 5630 5630 5631 5631 5631 5629 5629 5630 5633 5634 5634 5637 5637 5638 5641 5644 5649 5654 5662 5672 5683
5716 5710 5702 5701 5699 5692 5684 5680 5674 5667 5662 5657 5648 5643 5647 5641 5635 5634 5631 5626 5623 5622 5619 5618 5618 5619 5618 5616 5616 5617 5618 5621 5624 5625 5627 5628 5632 5635 5639 5642 5645 5652 5661 5674
5706 5700 5696 5690 5688 5681 5676 5671 5668 5660 5653 5647 5643 5633 5641 5634 5629 5629 5623 5617 5614 5610 5607 5607 5606 5605 5603 5602 5601 5604 5606 5607 5612 5616 5619 5623 5626 5629 5632 5634 5640 5647 5655 5663
5700 5693 5688 5683 5679 5672 5666 5665 5661 5652 5647 5636 5633 5628 5628 5623 5622 5619 5614 5608 5601 5598 5595 5593 5590 5589 5587 5586 5585 5588 5592 5593 5599 5607 5611 5615 5620 5624 5627 5631 5633 5639 5645 5653
5691 5684 5676 5672 5667 5659 5655 5653 5649 5645 5638 5630 5623 5621 5617 5613 5611 5610 5604 5596 5589 5589 5585 5583 5577 5577 5576 5576 5574 5574 5577 5580 5584 5595 5602 5608 5613 5618 5622 5623 5627 5634 5639 5646
5679 5671 5665 5660 5656 5648 5647 5642 5637 5631 5626 5620 5615 5613 5608 5607 5603 5601 5595 5586 5580 5576 5571 5572 5568 5566 5565 5565 5565 5564 5565 5567 5572 5580 5591 5599 5606 5611 5615 5618 5623 5629 5634 5640
5669 5661 5653 5647 5644 5639 5635 5631 5625 5619 5617 5612 5607 5602 5599 5594 5593 5593 5581 5570 5568 5563 5558 5557 5557 5557 5556 5556 5555 5554 5556 5559 5562 5569 5577 5589 5597 5604 5610 5613 5617 5624 5630 5635
5657 5650 5644 5636 5633 5631 5627 5621 5615 5608 5611 5605 5598 5594 5590 5584 5579 5585 5569 5560 5553 5548 5544 5545 5545 5546 5546 5546 5545 5545 5546 5550 5554 5558 5567 5579 5589 5596 5603 5607 5612 5618 5625 5631
5650 5639 5634 5629 5622 5619 5617 5612 5605 5600 5598 5595 5589 5585 5580 5575 5564 5568 5558 5552 5543 5537 5533 5533 5532 5533 5535 5534 5534 5536 5535 5539 5545 5548 5558 5570 5581 5590 5597 5603 5609 5615 5621 5626
5639 5632 5627 5622 5616 5613 5606 5603 5598 5595 5591 5585 5580 5574 5569 5563 5554 5548 5544 5539 5531 5525 5523 5521 5521 5522 5522 5521 5521 5523 5522 5526 5534 5539 5550 5562 5575 5584 5594 5600 5606 5612 5620 5624
5628 5621 5620 5615 5610 5605 5600 5597 5592 5588 5584 5576 5572 5565 5557 5553 5547 5539 5532 5526 5521 5516 5514 5513 5512 5510 5509 5508 5505 5507 5507 5513 5524 5531 5543 5556 5570 5581 5590 5598 5603 5611 5617 5624
5622 5617 5613 5607 5604 5598 5595 5591 5587 5579 5574 5570 5562 5557 5547 5541 5536 5529 5522 5516 5512 5509 5507 5506 5503 5501 5498 5494 5492 5492 5496 5505 5515 5525 5540 5552 5565 5577 5586 5595 5603 5609 5616 5623
5616 5611 5608 5603 5601 5594 5591 5587 5580 5574 5567 5561 5553 5545 5539 5532 5524 5517 5510 5506 5504 5502 5501 5498 5494 5490 5485 5482 5482 5484 5489 5499 5510 5523 5536 5550 5562 5574 5585 5593 5601 5607 5615 5620
5610 5607 5603 5600 5595 5591 5587 5580 5573 5568 5561 5553 5546 5537 5529 5522 5515 5507 5502 5500 5499 5498 5495 5491 5486 5481 5477 5476 5477 5480 5486 5496 5506 5521 5535 5548 5561 5574 5586 5594 5600 5607 5613 5621
5606 5604 5598 5595 5590 5584 5580 5573 5566 5561 5553 5545 5537 5531 5522 5513 5506 5500 5498 5497 5497 5494 5491 5486 5480 5475 5470 5470 5475 5479 5487 5497 5509 5523 5537 5550 5562 5574 5585 5593 5600 5607 5612 5619